Retour au catalogue

BREEZE-M DEB

LostHEO
NORAD 38605·DEBRIS·🇷🇺 Russia

Lancé Mar 14, 2008 depuis Baikonur Cosmodrome

Loading…

Prochains Passages (prochaines 24 heures)

TLE

PériméSource: Space-Track

Époque: Mar 22, 2016, 19:01 UTC

1 38605U 08011BC  16082.79245447 -.00006854  00000-0 -22518+0 0  9993
2 38605  49.1320 223.5179 6384388 171.1367 356.3974  3.07032609 56860

Suivez BREEZE-M DEB en temps réel avec AllMySat

Download on the App Store